TimeCDT,TemperatureF,Dew PointF,Humidity,Sea Level PressureIn,VisibilityMPH,Wind Direction,Wind SpeedMPH,Gust SpeedMPH,PrecipitationIn,Events,Conditions,WindDirDegrees,DateUTC
12:53 AM,73.9,68.0,82,29.95,9.0,South,11.5,-,N/A,,Clear,180,2013-09-19 05:53:00
1:53 AM,73.0,66.9,81,29.95,9.0,South,8.1,-,N/A,,Clear,180,2013-09-19 06:53:00
2:53 AM,72.0,66.9,84,29.94,9.0,South,10.4,-,N/A,,Clear,180,2013-09-19 07:53:00
3:53 AM,72.0,66.0,81,29.95,9.0,South,10.4,-,N/A,,Clear,190,2013-09-19 08:53:00
4:53 AM,72.0,66.0,81,29.95,9.0,South,9.2,-,N/A,,Clear,190,2013-09-19 09:53:00
5:53 AM,72.0,66.0,81,29.95,9.0,South,9.2,-,N/A,,Clear,180,2013-09-19 10:53:00
6:53 AM,72.0,66.0,81,29.96,9.0,South,10.4,-,N/A,,Clear,180,2013-09-19 11:53:00
7:53 AM,73.0,66.0,79,29.96,8.0,South,9.2,-,N/A,,Clear,190,2013-09-19 12:53:00
8:53 AM,73.9,68.0,82,29.96,8.0,South,10.4,-,N/A,,Clear,180,2013-09-19 13:53:00
9:53 AM,75.9,69.1,79,29.97,9.0,South,10.4,18.4,N/A,,Overcast,190,2013-09-19 14:53:00
10:53 AM,77.0,69.1,76,29.98,9.0,South,10.4,-,N/A,,Mostly Cloudy,190,2013-09-19 15:53:00
11:53 AM,77.0,69.1,76,29.97,10.0,SSW,9.2,-,N/A,,Mostly Cloudy,200,2013-09-19 16:53:00
12:53 PM,82.0,70.0,67,29.96,10.0,SSW,10.4,18.4,N/A,,Partly Cloudy,210,2013-09-19 17:53:00
1:53 PM,84.0,71.1,65,29.94,10.0,SW,13.8,-,N/A,,Partly Cloudy,230,2013-09-19 18:53:00
2:53 PM,86.0,71.1,61,29.91,10.0,South,6.9,-,N/A,,Clear,180,2013-09-19 19:53:00
3:53 PM,86.0,71.1,61,29.88,10.0,South,10.4,17.3,N/A,,Clear,180,2013-09-19 20:53:00
4:53 PM,84.9,71.1,63,29.86,10.0,South,11.5,17.3,N/A,,Clear,180,2013-09-19 21:53:00
5:53 PM,84.0,70.0,63,29.85,10.0,South,12.7,-,N/A,,Clear,170,2013-09-19 22:53:00
6:53 PM,80.1,70.0,71,29.85,9.0,South,8.1,-,N/A,,Clear,170,2013-09-19 23:53:00
7:53 PM,77.0,68.0,74,29.86,10.0,South,12.7,-,N/A,,Clear,170,2013-09-20 00:53:00
8:53 PM,73.9,66.0,76,29.90,10.0,South,6.9,-,N/A,,Clear,190,2013-09-20 01:53:00
9:53 PM,72.0,64.9,78,29.91,10.0,South,9.2,-,N/A,,Partly Cloudy,190,2013-09-20 02:53:00
10:53 PM,72.0,66.0,81,29.90,10.0,South,9.2,-,N/A,,Clear,180,2013-09-20 03:53:00
11:53 PM,72.0,66.9,84,29.90,10.0,South,5.8,-,N/A,,Clear,190,2013-09-20 04:53:00